DECAYED

STARLINK-1790, 46691 (Decayed)

Orbit data source: Space-Track

STARLINK-1790, 46691 was a payload satellite owned by SpaceX/Seattle (US) in LEO that was launched on Sun, 18 Oct 2020 UTC via an FALCON 9 launch vehicle from the Air Force Eastern Test Range (AFETR). Payload-class satellites include a variety of spacecraft equipped with specific instruments for various scientific and technological missions. These include communications satellites like Starlink; space stations such as the ISS; scientific satellites like the Hubble; Earth observation satellites from companies like Planet Labs, Umbra, and HawkEye 360; GPS; miniature CubeSats for education and research; and military/defense satellites.

Not visible in the next 10 days
Identifier
46691, 2020-073X
Orbit
Decayed
Country
Flag of USUS
Related business
Manufacturer
SpaceX/Seattle
Mission
Decayed Commercial Communications
Bus & Motor
STARLINK, Unknown motor
Mass
260 kg wet, ~248 kg dry
Launch date (UTC)
2020-10-18 (6 years ago)
Launch vehicle
FALCON 9
Launch site
Air Force Eastern Test Range (AFETR)
Object type
Payload
Rocket body
Debris
Shape & HBR
Box + 1 Pan, 10.1 m
Radar Cross Section
13.562 m², Large (>1 m²)

Expand to show TLE details & history
Last TLE update: 4 months ago

TLE from 4 months ago
0 STARLINK-1790
1 46691U 20073X   26134.41143491  .10879698  12534-4  39194-3 0  9997
2 46691  53.0199 224.0161 0007366 301.8288  58.2042 16.43828140308181
Epoch: 2026-05-14T09:52Z
TLE epoch observation values (Epoch: 2026-05-14T09:52:27.976Z)
Latitude
-0.00002°
Longitude
-156.25797°
Altitude
154.033 km
Speed
7.817 km/s
True Right ascension
14h 56m 03s
True Declination
0° 00' 00"
Sunlit
Object was in full shadow at epoch
Visualization orbit readout
Latitude
Unknown
Longitude
Unknown
Altitude
Unknown
Speed
Unknown
Apparent Right ascension
Unknown
Apparent Declination
Unknown
Sunlit
N/A
Visualization observer readout
Local Sidereal Time
03:37:54
Azimuth
Unknown
Elevation
Unknown
Doppler factor
Unknown
Orbital elements
Apogee altitude
160.744 km
Perigee altitude
151.118 km
Semi-major axis
6,534.068 km
Eccentricity
0.00074
Inclination
53.0199°
RAAN
224.0161°
Arg. of periapsis
301.8288°
True anomaly
58.27598°
Mean anomaly
58.2042°
Eccentric anomaly
58.24008°
Mean motion
4.1093 °/min
Orbital period
87.61 mins
BSTAR
0.00039194
Loading maneuver chart data...
Computing Atmospheric mass density...

Documentation

Showing up to 5 results
|